Rickenbacker, OH

9:47 PM EST on December 13, 2019 (GMT -0500)
Rickenbacker International

Weather History for KLCK - November, 2019

Change the Weather History Date:

Sunday, November 17, 2019

  Actual Average Record
Temperature  
Mean Temperature 35 °F -  
Max Temperature 59 °F 50 °F 67 °F (2016)
Min Temperature 22 °F 34 °F 14 °F (2014)
Degree Days  
Heating Degree Days 30    
Moisture  
Dew Point 24 °F    
Average Humidity 64    
Maximum Humidity 82    
Minimum Humidity 44    
Precipitation  
Precipitation 0.00 in - - ()
Sea Level Pressure  
Sea Level Pressure 30.04 in    
Wind  
Wind Speed 3 mph ()    
Max Wind Speed 7 mph    
Max Gust Speed -    
Visibility 10.0 miles    
Events      
Averages and records for this station are not official NWS values.
T = Trace of Precipitation, MM = Missing Value Source: Averaged Metar Reports

Daily Weather History Graph

Daily Weather History Graph

Search for Another Location

Airport or City:

Astronomy

Nov. 17, 2019 Rise Set
Actual Time 7:18 AM EST 5:14 PM EST
Civil Twilight 6:49 AM EST 5:43 PM EST
Nautical Twilight 6:16 AM EST 6:16 PM EST
Astronomical Twilight 5:44 AM EST 6:48 PM EST
Moon 9:50 PM EST (11/17) 12:03 PM EST (11/17)
Length of Visible Light 10h 54m
Length of Day
9h 56m
Waning Gibbous, 73% of the Moon is Illuminated
Nov 17
Waning Gibbous
Nov 19
Last Quarter
Nov 26
New
Dec 4
First Quarter
Dec 12
Full

Hourly Weather History & Observations

Time (EST) Temp. Windchill Dew Point Humidity Pressure Visibility Wind Dir Wind Speed Gust Speed Precip Events Conditions
12:00 AM 27.0 °F 21.6 °F 21.4 °F 79% 30.18 in 10.0 mi NE 4.6 mph - N/A   Clear
12:15 AM 26.6 °F 22.6 °F 21.7 °F 82% 30.18 in 10.0 mi NNE 3.5 mph - N/A   Clear
12:35 AM 27.5 °F 22.2 °F 21.9 °F 80% 30.18 in 10.0 mi NNE 4.6 mph - N/A   Clear
12:55 AM 27.5 °F 21.1 °F 21.9 °F 80% 30.18 in 10.0 mi NNE 5.8 mph - N/A   Clear
1:35 AM 28.9 °F 23.9 °F 21.2 °F 73% 30.17 in 10.0 mi NNE 4.6 mph - N/A   Clear
1:55 AM 28.2 °F 23.1 °F 21.0 °F 74% 30.16 in 10.0 mi NNE 4.6 mph - N/A   Clear
2:15 AM 27.9 °F 21.5 °F 20.7 °F 74% 30.16 in 10.0 mi NNE 5.8 mph - N/A   Clear
2:35 AM 27.7 °F 21.3 °F 20.5 °F 74% 30.17 in 10.0 mi NNE 5.8 mph - N/A   Clear
3:15 AM 25.7 °F 18.0 °F 19.6 °F 78% 30.16 in 10.0 mi NE 6.9 mph - N/A   Clear
3:35 AM 26.1 °F 19.4 °F 19.8 °F 77% 30.16 in 10.0 mi NNE 5.8 mph - N/A   Clear
3:55 AM 26.4 °F 18.9 °F 19.4 °F 75% 30.16 in 10.0 mi NNE 6.9 mph - N/A   Clear
4:15 AM 26.2 °F 18.6 °F 19.2 °F 75% 30.15 in 10.0 mi NNE 6.9 mph - N/A   Clear
4:35 AM 25.9 °F 18.2 °F 18.7 °F 74% 30.15 in 10.0 mi NNE 6.9 mph - N/A   Clear
4:55 AM 26.1 °F 19.4 °F 18.7 °F 74% 30.15 in 10.0 mi NNE 5.8 mph - N/A   Clear
5:15 AM 25.9 °F 18.2 °F 18.3 °F 73% 30.15 in 10.0 mi NE 6.9 mph - N/A   Clear
5:35 AM 24.8 °F 16.9 °F 18.0 °F 75% 30.15 in 10.0 mi NE 6.9 mph - N/A   Clear
6:00 AM 24.8 °F 16.9 °F 18.0 °F 75% 30.15 in 10.0 mi NNE 6.9 mph - N/A   Clear
6:15 AM 24.8 °F 16.9 °F 17.8 °F 75% 30.16 in 10.0 mi NNE 6.9 mph - N/A   Clear
6:35 AM 24.6 °F 16.7 °F 17.6 °F 75% 30.15 in 10.0 mi NE 6.9 mph - N/A   Clear
6:55 AM 22.8 °F 15.5 °F 16.9 °F 78% 30.15 in 10.0 mi NE 5.8 mph - N/A   Clear
7:15 AM 23.7 °F 19.3 °F 17.2 °F 76% 30.15 in 10.0 mi NE 3.5 mph - N/A   Clear
7:35 AM 25.2 °F 20.9 °F 17.2 °F 72% 30.14 in 10.0 mi ENE 3.5 mph - N/A   Clear
7:55 AM 24.4 °F 18.6 °F 17.2 °F 74% 30.14 in 10.0 mi NE 4.6 mph - N/A   Clear
8:10 AM 25.2 °F 18.3 °F 18.3 °F 75% 30.13 in 10.0 mi NE 5.8 mph - N/A   Clear
8:35 AM 27.3 °F 23.4 °F 19.9 °F 74% 30.13 in 10.0 mi ENE 3.5 mph - N/A   Clear
8:55 AM 28.9 °F - 20.7 °F 71% 30.12 in 10.0 mi Calm Calm - N/A   Clear
9:15 AM 30.4 °F - 21.4 °F 69% 30.13 in 10.0 mi Calm Calm - N/A   Clear
9:35 AM 31.6 °F - 21.7 °F 67% 30.12 in 10.0 mi Calm Calm - N/A   Clear
9:55 AM 32.9 °F - 22.5 °F 65% 30.12 in 10.0 mi Calm Calm - N/A   Clear
10:15 AM 34.3 °F - 23.5 °F 65% 30.11 in 10.0 mi Calm Calm - N/A   Clear
10:35 AM 36.1 °F - 24.3 °F 62% 30.10 in 10.0 mi Calm Calm - N/A   Clear
10:55 AM 37.8 °F - 24.6 °F 59% 30.09 in 10.0 mi Calm Calm - N/A   Clear
11:15 AM 39.2 °F - 25.2 °F 57% 30.08 in 10.0 mi Calm Calm - N/A   Clear
11:35 AM 40.5 °F - 25.5 °F 55% 30.07 in 10.0 mi Calm Calm - N/A   Clear
11:55 AM 41.4 °F - 25.9 °F 54% 30.06 in 10.0 mi Calm Calm - N/A   Clear
12:15 PM 42.3 °F 40.5 °F 26.2 °F 53% 30.04 in 10.0 mi NE 3.5 mph - N/A   Clear
12:35 PM 43.5 °F 40.9 °F 26.8 °F 52% 30.02 in 10.0 mi East 4.6 mph - N/A   Clear
12:55 PM 45.1 °F 42.8 °F 27.3 °F 50% 30.01 in 10.0 mi ESE 4.6 mph - N/A   Clear
1:15 PM 45.7 °F 44.4 °F 27.5 °F 49% 30.00 in 10.0 mi ENE 3.5 mph - N/A   Clear
1:35 PM 46.0 °F - 27.1 °F 48% 29.99 in 10.0 mi Calm Calm - N/A   Clear
1:55 PM 47.1 °F - 27.9 °F 47% 29.98 in 10.0 mi NNE 4.6 mph - N/A   Clear
2:15 PM 47.7 °F - 27.7 °F 46% 29.98 in 10.0 mi Calm Calm - N/A   Clear
2:35 PM 47.8 °F - 27.5 °F 45% 29.97 in 10.0 mi Calm Calm - N/A   Clear
2:55 PM 47.8 °F - 27.3 °F 45% 29.96 in 10.0 mi Calm Calm - N/A   Clear
3:15 PM 48.0 °F - 27.9 °F 46% 29.96 in 10.0 mi East 3.5 mph - N/A   Clear
3:35 PM 47.8 °F - 26.8 °F 44% 29.96 in 10.0 mi Calm Calm - N/A   Clear
3:55 PM 47.5 °F - 27.1 °F 45% 29.96 in 10.0 mi Calm Calm - N/A   Clear
4:15 PM 47.3 °F - 27.3 °F 46% 29.96 in 10.0 mi Calm Calm - N/A   Clear
4:35 PM 46.8 °F - 27.0 °F 46% 29.96 in 10.0 mi Calm Calm - N/A   Clear
4:55 PM 45.7 °F - 27.7 °F 49% 29.95 in 10.0 mi Calm Calm - N/A   Clear
5:20 PM 45.3 °F - 27.3 °F 49% 29.95 in 10.0 mi Calm Calm - N/A   Clear
5:35 PM 45.1 °F - 27.5 °F 50% 29.94 in 10.0 mi Calm Calm - N/A   Clear
6:15 PM 41.2 °F 38.2 °F 28.8 °F 61% 29.93 in 10.0 mi East 4.6 mph - N/A   Clear
6:35 PM 40.6 °F - 28.2 °F 61% 29.93 in 10.0 mi Calm Calm - N/A   Clear
6:55 PM 41.4 °F - 27.7 °F 58% 29.93 in 10.0 mi Calm Calm - N/A   Clear
7:15 PM 43.3 °F - 25.0 °F 48% 29.93 in 10.0 mi Calm Calm - N/A   Clear
7:35 PM 42.8 °F - 26.8 °F 53% 29.92 in 10.0 mi Calm Calm - N/A   Clear
7:55 PM 41.5 °F - 27.7 °F 58% 29.92 in 10.0 mi Calm Calm - N/A   Clear
8:15 PM 41.7 °F - 27.5 °F 57% 29.92 in 10.0 mi Calm Calm - N/A   Clear
8:35 PM 40.6 °F - 28.9 °F 63% 29.91 in 10.0 mi Calm Calm - N/A   Clear
8:55 PM 40.1 °F 38.0 °F 29.3 °F 65% 29.90 in 10.0 mi NE 3.5 mph - N/A   Clear
9:15 PM 38.8 °F - 29.5 °F 69% 29.90 in 10.0 mi Calm Calm - N/A   Clear
9:35 PM 39.6 °F 36.3 °F 28.6 °F 65% 29.88 in 10.0 mi NE 4.6 mph - N/A   Clear
9:55 PM 38.7 °F - 28.9 °F 68% 29.88 in 10.0 mi Calm Calm - N/A   Clear
10:15 PM 39.2 °F - 27.9 °F 64% 29.87 in 10.0 mi Calm Calm - N/A   Clear
10:40 PM 37.4 °F 34.9 °F 28.6 °F 70% 29.86 in 10.0 mi ENE 3.5 mph - N/A   Clear
10:55 PM 36.1 °F 33.5 °F 29.1 °F 76% 29.85 in 10.0 mi East 3.5 mph - N/A   Clear
11:15 PM 36.0 °F - 29.1 °F 76% 29.85 in 10.0 mi Calm Calm - N/A   Clear
11:35 PM 36.9 °F - 28.8 °F 72% 29.85 in 10.0 mi Calm Calm - N/A   Clear